Regional Weather Roundup
Issued by NWS Cleveland, OH

Home | Current Version | Previous Version | Graphics & Text | Print | Product List | Glossary On
Versions: 1 2 3 4 5 6 7 8 9 10 11 12 13 14 15 16 17 18 19 20 21 22 23 24 25 26 27 28 29 30 31 32 33 34 35 36 37 38 39 40 41 42 43 44 45 46 47 48 49 50
000
ASUS41 KCLE 291902
RWRCLE
OHIO REGIONAL WEATHER ROUNDUP
NATIONAL WEATHER SERVICE CLEVELAND, OH
300 PM EDT SAT AUG 29 2015

NOTE: "FAIR" INDICATES FEW OR NO CLOUDS BELOW 12,000 FEET WITH NO
SIGNIFICANT WEATHER AND/OR OBSTRUCTIONS TO VISIBILITY.

OHZ001>008-015>018-024>027-034-035-043-044-292000-
   NORTHWEST OHIO

CITY           SKY/WX    TMP DP  RH WIND       PRES   REMARKS
DEFIANCE       CLOUDY    77  65  66 S7        30.08S
FINDLAY        PTSUNNY   82  66  58 S3        30.07F
TOLEDO EXPRESS CLOUDY    77  64  64 VRB3      30.07F
TOLEDO EXEC    PTSUNNY   80  63  55 S7        30.07F
LIMA           CLOUDY    80  66  62 S8        30.09F
$$

OHZ009>014-019>023-028>033-038-089-292000-
   NORTHEAST OHIO

CITY           SKY/WX    TMP DP  RH WIND       PRES   REMARKS
CLE-HOPKINS    CLOUDY    81  61  50 SW8       30.12F
CLE-LAKEFRONT  PTSUNNY   78  63  59 N6        30.09F
CUY CO. ARPT   MOSUNNY   82  61  47 SW6       30.12F
LORAIN-ELYRIA  PTSUNNY   80  62  54 VRB3      30.11F
ASHTABULA      MOSUNNY   79  57  46 S7        30.13F
AKRON-CANTON   PTSUNNY   82  60  47 S7        30.13F
WOOSTER        MOSUNNY   83  63  50 SW8       30.12F
MANSFIELD      PTSUNNY   82  62  50 SW12      30.12F
YOUNGSTOWN     PTSUNNY   81  59  47 VRB3      30.13F
$$

OHZ042-051>053-060>062-070>072-077>081-292000-
  SOUTHWEST OHIO

CITY           SKY/WX    TMP DP  RH WIND       PRES   REMARKS
CINC-COVINGTON PTSUNNY   85  65  51 SW9G16    30.10F
CINC-LUNKEN    PTSUNNY   84  67  56 S10       30.08F
HAMILTON       PTSUNNY   84  69  60 W8        30.09F
DAYTON         CLOUDY    81  67  62 SW12      30.11F
WRIGHT-PAT AFB CLOUDY    82  67  59 SW12      30.09F
DAYTON GENERAL PTSUNNY   83  64  52 W7        30.09F
WILMINGTON     MOSUNNY   84  64  50 S14       30.11F
$$

OHZ036-037-039>041-045>050-054>059-063>069-073>076-082>088-292000-
  CENTRAL AND SOUTHEAST OHIO

CITY           SKY/WX    TMP DP  RH WIND       PRES   REMARKS
COLUMBUS       PTSUNNY   83  64  52 S7        30.10F
OSU AIRPORT    PTSUNNY   83  65  54 W12       30.10F
BOLTON FIELD   PTSUNNY   84  64  51 SW9       30.11F
RICKENBACK AFB MOSUNNY   87  64  45 SW13      30.09F
NEWARK         CLOUDY    82  66  58 W9        30.11F
MARION         MOSUNNY   80  65  59 SW14      30.10F
LANCASTER      MOSUNNY   85  62  46 SW10      30.11F
ZANESVILLE     PTSUNNY   85  58  39 S9        30.12F
NEW PHILLY     MOSUNNY   85  62  46 VRB7      30.12F
$$


USA.gov is the U.S. government's official web portal to all federal, state and local government web resources and services.